Regional Weather Roundup
Issued by NWS Raleigh/Durham, NC

Home | Current Version | Previous Version | Text Only | Print | Product List | Glossary On
Versions: 1 2 3 4 5 6 7 8 9 10 11 12 13 14 15 16 17 18 19 20 21 22 23 24 25 26 27 28 29 30 31 32 33 34 35 36 37 38 39 40 41 42 43 44 45 46 47 48 49 50
000
ASUS42 KRAH 021110
RWRRAH
NORTH CAROLINA WEATHER ROUNDUP
NATIONAL WEATHER SERVICE RALEIGH NC
700 AM EDT SUN AUG 02 2015

NOTE: "FAIR" INDICATES FEW OR NO CLOUDS BELOW 12,000 FEET WITH NO
SIGNIFICANT WEATHER AND/OR OBSTRUCTIONS TO VISIBILITY.

NCZ001-053-055-056-065-067-021200-
WESTERN NORTH CAROLINA

CITY           SKY/WX    TMP DP  RH WIND       PRES   REMARKS
ASHEVILLE      CLEAR     58  55  90 S5        30.07R
JEFFERSON      CLEAR     61  53  76 CALM      30.10R
MORGANTON      CLEAR     59  59  99 CALM      30.06R FOG
HICKORY        CLEAR     65  60  84 CALM      30.01R
RUTHERFORDTON  MOCLDY    67  59  76 CALM      30.01R
MOUNT AIRY     MOCLDY    62  58  87 CALM      30.04R
BOONE            N/A     54  54 100 CALM      30.11R FOG
$$

NCZ021-022-025-041-071-084-088-021200-
CENTRAL NORTH CAROLINA

CITY           SKY/WX    TMP DP  RH WIND       PRES   REMARKS
CHARLOTTE      MOCLDY    68  58  70 N6        29.99R
GREENSBORO     MOCLDY    68  57  68 N5        29.99R
WINSTON-SALEM  MOCLDY    68  57  68 N5        30.01R
RALEIGH-DURHAM PTCLDY    67  60  78 CALM      29.96R
FORT BRAGG     CLEAR     70  64  81 CALM      29.93S
FAYETTEVILLE   CLEAR     70  67  90 N5        29.93R
BURLINGTON     MOCLDY    68  59  73 CALM      29.97R
LAURINBURG     CLEAR     69  65  86 N3        29.94R
$$

NCZ011-015-027-028-043-044-047-080-103-021200-
NORTHEASTERN NORTH CAROLINA

CITY           SKY/WX    TMP DP  RH WIND       PRES   REMARKS
ROCKY MT-WILSO CLEAR     72  61  68 N7        29.94R
GREENVILLE     CLEAR     72  72 100 CALM      29.95R FOG
WASHINGTON     FOG       73  72  98 CALM      29.92R VSB<1/4
ELIZABETH CITY FOG       72  72 100 CALM      29.91R VSB 1/4
MANTEO         PTCLDY    76  75  95 W5        29.91R
CAPE HATTERAS  CLEAR     79  74  84 W6        29.91R
$$

NCZ078-087-090-091-093-098-101-021200-
SOUTHEASTERN NORTH CAROLINA

CITY           SKY/WX    TMP DP  RH WIND       PRES   REMARKS
LUMBERTON      CLEAR     71  68  90 NW3       29.93R
GOLDSBORO      CLEAR     74  68  82 NW1       29.91R
KENANSVILLE    CLEAR     70  69  97 CALM      29.93S FOG
NEW BERN       CLEAR     73  71  93 CALM      29.93R
CHERRY POINT   CLEAR     74  72  93 CALM      29.92S
BEAUFORT       CLEAR     77  74  90 W6        29.92R
JACKSONVILLE   CLEAR     74  72  93 CALM      29.91R
WILMINGTON     CLEAR     75  72  90 SW3       29.92R
$$



USA.gov is the U.S. government's official web portal to all federal, state and local government web resources and services.